Location: Izdebno
(52.6670°N, 16.2170°E)
Time: 02:34:43
(UTC+02:00)

Transit 2A - Pass Details

Date: 29 February 2024
Orbit: 596 x 956 km, 66.7° (Epoch: 21 April)

Event Time Altitude Azimuth Distance (km) Brightness Sun altitude
Rises 18:28:06 0° 196° (SSW) 2,846 9.2 -9.1°
Reaches altitude 10° 18:30:25 10° 189° (S) 1,934 8.2 -9.5°
Maximum altitude 18:34:28 41° 120° (ESE) 876 5.9 -10.1°
Drops below altitude 10° 18:38:35 10° 50° (NE) 1,972 7.7 -10.7°
Enters shadow 18:39:28 - 47° (NE) 2,317 8.1 -10.9°
Sets 18:40:58 0° 43° (NE) 2,910 - -11.1°
